Погода в Алхаджакенте

Россия / Республика Дагестан     42°20′24″N   47°47′32″E
темп.,
°C
ветер,
м/с
пор.,
м/с
влажн.,
%
обл.,
%
осадки,
мм/ч
давл.,
гПа
погр.,
м
25 июня, сб
сб2500:00+15юз1190100 0.1 101012
03:00+14зсз118892 0.1 101011
06:00+17всв0075100 0.0 1010122
09:00+21всв326428 0.0 1010800
12:00+24всв425849 0.0 10091198
15:00+23всв3265100 0.1 1008913
18:00+20св2176100 0.0 1009457
21:00+18з1187100 0.1 101016
26 июня, вс
вс2600:00+18зюз2181100 0.1 100915
03:00+17зсз2281100 0.1 100925
06:00+19ююз117596 0.0 1009130
09:00+22всв2164100 0.0 1008799
12:00+24всв3354100 0.0 10071159
15:00+25св325168 0.1 10061298
18:00+23с2460100 0.1 1006323
21:00+18зсз4485100 1.3 100972
27 июня, пн
пн2700:00+18зюз4381100 0.5 100844
03:00+17з43780 0.6 100838
06:00+21з22650 0.0 100959
09:00+27ссв23430 0.0 10081124
12:00+29с55422 0.0 10081536
15:00+27ссз784917 0.0 10091300
18:00+25зсз47595 0.0 1009806
21:00+20з547168 0.0 101068
28 июня, вт
вт2800:00+20зсз4660100 0.0 1009102
03:00+19з446356 0.0 100862
06:00+21зсз33620 0.0 1008134
09:00+27с34380 0.0 10071114
12:00+29с65352 0.0 10071600
15:00+27с68422 0.1 10081433
18:00+23с46600 0.1 1010690
21:00+18з33761 0.3 101242
29 июня, ср
ср2900:00+17з4480100 0.6 101257
03:00+17з337391 0.7 101232
06:00+20з22590 0.0 101376
09:00+25ссв33320 0.0 10121525
12:00+27св443122 0.0 10122015
15:00+25св434326 0.1 10121507
18:00+21всв326710 0.0 1014577
21:00+16зсз019790 0.0 101574